Year,Month,Day,Hour,Minute,Value (Times are PST for temperature in C)
2008,10,16,08,58,6.60
2008,10,16,08,59,6.60
2008,10,16,09,00,6.60
2008,10,16,09,01,6.70
2008,10,16,09,02,6.60
2008,10,16,09,03,6.60
2008,10,16,09,04,6.60
2008,10,16,09,05,6.60
2008,10,16,09,06,6.60
2008,10,16,09,07,6.70
2008,10,16,09,08,6.70
2008,10,16,09,09,6.70
2008,10,16,09,10,6.70
2008,10,16,09,11,6.70
2008,10,16,09,12,6.70
2008,10,16,09,13,6.70
2008,10,16,09,14,6.70
2008,10,16,09,15,6.70
2008,10,16,09,16,6.70
2008,10,16,09,17,6.70
2008,10,16,09,18,6.70
2008,10,16,09,19,6.70
2008,10,16,09,20,6.70
2008,10,16,09,21,6.70
2008,10,16,09,22,6.70
2008,10,16,09,23,6.70
2008,10,16,09,24,6.70
2008,10,16,09,25,6.70
2008,10,16,09,26,6.70
2008,10,16,09,27,6.70
2008,10,16,09,28,6.70
2008,10,16,09,29,6.70
2008,10,16,09,30,6.70
2008,10,16,09,31,6.70
2008,10,16,09,32,6.70
2008,10,16,09,33,6.70
2008,10,16,09,34,6.70
2008,10,16,09,35,6.70
2008,10,16,09,36,6.70
2008,10,16,09,37,6.70
2008,10,16,09,38,6.70
2008,10,16,09,39,6.70
2008,10,16,09,40,6.70
2008,10,16,09,41,6.80
2008,10,16,09,42,6.80
2008,10,16,09,43,6.80
2008,10,16,09,44,6.80
2008,10,16,09,45,6.70
2008,10,16,09,46,6.70
2008,10,16,09,47,6.70
2008,10,16,09,48,6.70
2008,10,16,09,49,6.70
2008,10,16,09,50,6.70
2008,10,16,09,51,6.70
2008,10,16,09,52,6.80
2008,10,16,09,53,6.80
2008,10,16,09,54,6.80
2008,10,16,09,55,6.80
2008,10,16,09,56,6.80
2008,10,16,09,57,6.80
2008,10,16,09,58,6.80
2008,10,16,09,59,6.80
2008,10,16,10,00,6.80
2008,10,16,10,01,6.80
2008,10,16,10,02,6.80
2008,10,16,10,03,6.80
2008,10,16,10,04,6.80
2008,10,16,10,05,6.80
2008,10,16,10,06,6.80
2008,10,16,10,07,6.80
2008,10,16,10,08,6.80
2008,10,16,10,09,6.80
2008,10,16,10,10,6.80
2008,10,16,10,11,6.80
2008,10,16,10,12,6.80
2008,10,16,10,13,6.80
2008,10,16,10,14,6.80
2008,10,16,10,15,6.80
2008,10,16,10,16,6.80
2008,10,16,10,17,6.80
2008,10,16,10,18,6.80
2008,10,16,10,19,6.80
2008,10,16,10,20,6.80
2008,10,16,10,21,6.80
2008,10,16,10,22,6.80
2008,10,16,10,23,6.80
2008,10,16,10,24,6.80
2008,10,16,10,25,6.80
2008,10,16,10,26,6.80
2008,10,16,10,27,6.90
2008,10,16,10,28,6.90
2008,10,16,10,29,6.90
2008,10,16,10,30,6.90
2008,10,16,10,31,6.90
2008,10,16,10,32,6.90
2008,10,16,10,33,6.90
2008,10,16,10,34,6.90
2008,10,16,10,35,6.90
2008,10,16,10,36,6.80
2008,10,16,10,37,6.90
2008,10,16,10,38,6.90
2008,10,16,10,39,6.90
2008,10,16,10,40,6.90
2008,10,16,10,41,6.90
2008,10,16,10,42,6.90
2008,10,16,10,43,6.90
2008,10,16,10,44,6.90
2008,10,16,10,45,6.90
2008,10,16,10,46,6.90
2008,10,16,10,47,6.90
2008,10,16,10,48,6.90
2008,10,16,10,49,6.90
2008,10,16,10,50,6.90
2008,10,16,10,51,6.90
2008,10,16,10,52,6.90
2008,10,16,10,53,6.90
2008,10,16,10,54,6.90
2008,10,16,10,55,6.90
2008,10,16,10,56,6.90
2008,10,16,10,57,6.90
2008,10,16,10,58,6.90
2008,10,16,10,59,6.90
2008,10,16,11,00,6.90
2008,10,16,11,01,6.90
2008,10,16,11,02,6.90
2008,10,16,11,03,6.90
2008,10,16,11,04,6.90
2008,10,16,11,05,6.90
2008,10,16,11,06,6.90
2008,10,16,11,07,6.90
2008,10,16,11,08,6.90
2008,10,16,11,09,6.90
2008,10,16,11,10,6.90
2008,10,16,11,11,6.90
2008,10,16,11,12,6.90
2008,10,16,11,13,6.90
2008,10,16,11,14,6.90
2008,10,16,11,15,6.90
2008,10,16,11,16,6.90
2008,10,16,11,17,6.90
2008,10,16,11,18,6.90
2008,10,16,11,19,6.90
2008,10,16,11,20,6.90
2008,10,16,11,21,6.90
2008,10,16,11,22,6.90
2008,10,16,11,23,6.90
2008,10,16,11,24,6.90
2008,10,16,11,25,6.90
2008,10,16,11,26,6.90
2008,10,16,11,27,6.90
2008,10,16,11,28,6.90
2008,10,16,11,29,6.90
2008,10,16,11,30,6.90
2008,10,16,11,31,6.90
2008,10,16,11,32,6.90
2008,10,16,11,33,6.90
2008,10,16,11,34,6.90
2008,10,16,11,35,6.90
2008,10,16,11,36,7.00
2008,10,16,11,37,7.00
2008,10,16,11,38,7.00
2008,10,16,11,39,7.00
2008,10,16,11,40,7.00
2008,10,16,11,41,7.00
2008,10,16,11,42,7.00
2008,10,16,11,43,7.00
2008,10,16,11,44,7.00
2008,10,16,11,45,7.10
2008,10,16,11,46,7.10
2008,10,16,11,47,7.10
2008,10,16,11,48,7.10
2008,10,16,11,49,7.10
2008,10,16,11,50,7.10
2008,10,16,11,51,7.10
2008,10,16,11,52,7.10
2008,10,16,11,53,7.10
2008,10,16,11,54,7.10
2008,10,16,11,55,7.10
2008,10,16,11,56,7.10
2008,10,16,11,57,7.10
2008,10,16,11,58,7.10
2008,10,16,11,59,7.10
2008,10,16,12,00,7.20
2008,10,16,12,01,7.20
2008,10,16,12,02,7.20
2008,10,16,12,03,7.20
2008,10,16,12,04,7.20
2008,10,16,12,05,7.20
2008,10,16,12,06,7.20
2008,10,16,12,07,7.20
2008,10,16,12,08,7.20
2008,10,16,12,09,7.20
2008,10,16,12,10,7.20
2008,10,16,12,11,7.20
2008,10,16,12,12,7.20
2008,10,16,12,13,7.20
2008,10,16,12,14,7.20
2008,10,16,12,15,7.20
2008,10,16,12,16,7.20
2008,10,16,12,17,7.20
2008,10,16,12,18,7.20
2008,10,16,12,19,7.20
2008,10,16,12,20,7.20
2008,10,16,12,21,7.20
2008,10,16,12,22,7.20
2008,10,16,12,23,7.20
2008,10,16,12,24,7.20
2008,10,16,12,25,7.20
2008,10,16,12,26,7.20
2008,10,16,12,27,7.20
2008,10,16,12,28,7.20
2008,10,16,12,29,7.20
2008,10,16,12,30,7.20
2008,10,16,12,31,7.20
2008,10,16,12,32,7.20
2008,10,16,12,33,7.20
2008,10,16,12,34,7.20
2008,10,16,12,35,7.20
2008,10,16,12,36,7.20
2008,10,16,12,37,7.20
2008,10,16,12,38,7.20
2008,10,16,12,39,7.20
2008,10,16,12,40,7.20
2008,10,16,12,41,7.20
2008,10,16,12,42,7.20
2008,10,16,12,43,7.20
2008,10,16,12,44,7.20
2008,10,16,12,45,7.20
2008,10,16,12,46,7.20
2008,10,16,12,47,7.20
2008,10,16,12,48,7.20
2008,10,16,12,49,7.20
2008,10,16,12,50,7.30
2008,10,16,12,51,7.30
2008,10,16,12,57,7.20
2008,10,16,12,58,7.30
2008,10,16,12,59,7.30
2008,10,16,13,00,7.30
2008,10,16,13,01,7.30
2008,10,16,13,02,7.30
2008,10,16,13,03,7.30
2008,10,16,13,04,7.30
2008,10,16,13,05,7.30
2008,10,16,13,06,7.30
2008,10,16,13,07,7.30
2008,10,16,13,08,7.30
2008,10,16,13,09,7.30
2008,10,16,13,10,7.30
2008,10,16,13,11,7.30
2008,10,16,13,12,7.40
2008,10,16,13,13,7.40
2008,10,16,13,14,7.40
2008,10,16,13,15,7.40
2008,10,16,13,16,7.40
2008,10,16,13,17,7.40
2008,10,16,13,18,7.40
2008,10,16,13,19,7.40
2008,10,16,13,20,7.40
2008,10,16,13,21,7.40
2008,10,16,13,22,7.40
2008,10,16,13,23,7.40
2008,10,16,13,24,7.40
2008,10,16,13,25,7.40
2008,10,16,13,26,7.40
2008,10,16,13,27,7.40
2008,10,16,13,28,7.40
2008,10,16,13,29,7.40
2008,10,16,13,30,7.40
2008,10,16,13,31,7.40
2008,10,16,13,32,7.40
2008,10,16,13,33,7.40
2008,10,16,13,34,7.40
2008,10,16,13,35,7.40
2008,10,16,13,36,7.40
2008,10,16,13,37,7.40
2008,10,16,13,38,7.40
2008,10,16,13,39,7.40
2008,10,16,13,40,7.40
2008,10,16,13,41,7.40
2008,10,16,13,42,7.50
2008,10,16,13,43,7.50
2008,10,16,13,44,7.50
2008,10,16,13,45,7.50
2008,10,16,13,46,7.50
2008,10,16,13,47,7.50
2008,10,16,13,48,7.50
2008,10,16,13,49,7.50
2008,10,16,13,50,7.50
2008,10,16,13,51,7.50
2008,10,16,13,52,7.50
2008,10,16,13,53,7.50
2008,10,16,13,54,7.50
2008,10,16,13,55,7.50
2008,10,16,13,56,7.50
2008,10,16,13,57,7.50
2008,10,16,13,58,7.50
2008,10,16,13,59,7.50
2008,10,16,14,00,7.50
2008,10,16,14,01,7.50
2008,10,16,14,02,7.50
2008,10,16,14,03,7.50
2008,10,16,14,04,7.50
2008,10,16,14,05,7.60
2008,10,16,14,06,7.50
2008,10,16,14,07,7.50
2008,10,16,14,08,7.60
2008,10,16,14,09,7.60
2008,10,16,14,10,7.60
2008,10,16,14,11,7.60
2008,10,16,14,12,7.60
2008,10,16,14,13,7.60
2008,10,16,14,14,7.60
2008,10,16,14,15,7.60
2008,10,16,14,16,7.60
2008,10,16,14,17,7.60
2008,10,16,14,18,7.60
2008,10,16,14,19,7.60
2008,10,16,14,20,7.60
2008,10,16,14,21,7.60
2008,10,16,14,22,7.60
2008,10,16,14,23,7.60
2008,10,16,14,24,7.60
2008,10,16,14,25,7.60
2008,10,16,14,26,7.60
2008,10,16,14,27,7.60
2008,10,16,14,28,7.60
2008,10,16,14,29,7.60
2008,10,16,14,30,7.60
2008,10,16,14,31,7.60
2008,10,16,14,32,7.60
2008,10,16,14,33,7.60
2008,10,16,14,34,7.60
2008,10,16,14,35,7.60
2008,10,16,14,36,7.70
2008,10,16,14,37,7.60
2008,10,16,14,38,7.60
2008,10,16,14,39,7.60
2008,10,16,14,40,7.60
2008,10,16,14,41,7.70
2008,10,16,14,42,7.70
2008,10,16,14,43,7.70
2008,10,16,14,44,7.70
2008,10,16,14,45,7.70
2008,10,16,14,46,7.60
2008,10,16,14,47,7.60
2008,10,16,14,48,7.60
2008,10,16,14,49,7.70
2008,10,16,14,50,7.70
2008,10,16,14,51,7.70
2008,10,16,14,52,7.70
2008,10,16,14,53,7.70
2008,10,16,14,54,7.70
2008,10,16,14,55,7.70
2008,10,16,14,56,7.70
2008,10,16,14,57,7.70
2008,10,16,14,58,7.70
2008,10,16,14,59,7.70
2008,10,16,15,00,7.70
2008,10,16,15,01,7.70
2008,10,16,15,02,7.70
2008,10,16,15,03,7.70
2008,10,16,15,04,7.70
2008,10,16,15,05,7.70
2008,10,16,15,06,7.70
2008,10,16,15,07,7.70
2008,10,16,15,08,7.70
2008,10,16,15,09,7.70
2008,10,16,15,10,7.70
2008,10,16,15,11,7.70
2008,10,16,15,12,7.70
2008,10,16,15,13,7.70
2008,10,16,15,14,7.80
2008,10,16,15,15,7.80
2008,10,16,15,16,7.80
2008,10,16,15,17,7.80
2008,10,16,15,18,7.80
2008,10,16,15,19,7.80
2008,10,16,15,20,7.80
2008,10,16,15,21,7.80
2008,10,16,15,22,7.80
2008,10,16,15,23,7.80
2008,10,16,15,24,7.80
2008,10,16,15,25,7.80
2008,10,16,15,26,7.80
2008,10,16,15,27,7.80
2008,10,16,15,28,7.80
2008,10,16,15,29,7.70
2008,10,16,15,30,7.80
2008,10,16,15,31,7.80
2008,10,16,15,32,7.80
2008,10,16,15,33,7.80
2008,10,16,15,34,7.80
2008,10,16,15,35,7.80
2008,10,16,15,36,7.80
2008,10,16,15,37,7.80
2008,10,16,15,38,7.80
2008,10,16,15,39,7.80
2008,10,16,15,40,7.80
2008,10,16,15,41,7.80
2008,10,16,15,42,7.80
2008,10,16,15,43,7.80
2008,10,16,15,44,7.80
2008,10,16,15,45,7.80
2008,10,16,15,46,7.80
2008,10,16,15,47,7.80
2008,10,16,15,48,7.80
2008,10,16,15,49,7.80
2008,10,16,15,50,7.80
2008,10,16,15,51,7.80
2008,10,16,15,52,7.80
2008,10,16,15,53,7.80
2008,10,16,15,54,7.80
2008,10,16,15,55,7.80
2008,10,16,15,56,7.80
2008,10,16,15,57,7.80
2008,10,16,15,58,7.80
2008,10,16,15,59,7.80
2008,10,16,16,00,7.80
2008,10,16,16,01,7.80
2008,10,16,16,02,7.80
2008,10,16,16,03,7.80
2008,10,16,16,04,7.80
2008,10,16,16,05,7.80
2008,10,16,16,06,7.90
2008,10,16,16,07,7.90
2008,10,16,16,08,7.90
2008,10,16,16,09,7.90
2008,10,16,16,10,7.90
2008,10,16,16,11,7.90
2008,10,16,16,12,7.90
2008,10,16,16,13,7.90
2008,10,16,16,14,7.90
2008,10,16,16,15,7.90
2008,10,16,16,16,7.90
2008,10,16,16,17,7.90
2008,10,16,16,18,7.90
2008,10,16,16,19,7.90
2008,10,16,16,20,7.90
2008,10,16,16,21,8.00
2008,10,16,16,22,8.00
2008,10,16,16,23,8.00
2008,10,16,16,24,8.00
2008,10,16,16,25,8.00
2008,10,16,16,26,8.00
2008,10,16,16,27,8.00
2008,10,16,16,28,8.00
2008,10,16,16,29,8.00
2008,10,16,16,30,8.00
2008,10,16,16,31,8.00
2008,10,16,16,32,8.00
2008,10,16,16,33,8.00
2008,10,16,16,34,8.00
2008,10,16,16,35,8.00
2008,10,16,16,36,8.00
2008,10,16,16,37,8.00
2008,10,16,16,38,8.00
2008,10,16,16,39,8.10
2008,10,16,16,40,8.10
2008,10,16,16,41,8.10
2008,10,16,16,42,8.10
2008,10,16,16,43,8.10
2008,10,16,16,44,8.10
2008,10,16,16,45,8.10
2008,10,16,16,46,8.10
2008,10,16,16,47,8.10
2008,10,16,16,48,8.10
2008,10,16,16,49,8.10
2008,10,16,16,50,8.10
2008,10,16,16,51,8.10
2008,10,16,16,52,8.20
2008,10,16,16,53,8.20
2008,10,16,16,54,8.10
2008,10,16,16,55,8.10
2008,10,16,16,56,8.10
2008,10,16,16,57,8.20
2008,10,16,16,58,8.10
2008,10,16,16,59,8.20
2008,10,16,17,00,8.20
2008,10,16,17,01,8.20
2008,10,16,17,02,8.20
2008,10,16,17,03,8.20
2008,10,16,17,04,8.20
2008,10,16,17,05,8.20
2008,10,16,17,06,8.20
2008,10,16,17,07,8.20
2008,10,16,17,08,8.20
2008,10,16,17,09,8.20
2008,10,16,17,10,8.20
2008,10,16,17,11,8.20
2008,10,16,17,12,8.20
2008,10,16,17,13,8.20
2008,10,16,17,14,8.20
2008,10,16,17,15,8.20
2008,10,16,17,16,8.20
2008,10,16,17,17,8.20
2008,10,16,17,18,8.20
2008,10,16,17,19,8.20
2008,10,16,17,20,8.20
2008,10,16,17,21,8.20
2008,10,16,17,22,8.20
2008,10,16,17,23,8.20
2008,10,16,17,24,8.20
2008,10,16,17,25,8.20
2008,10,16,17,26,8.20
2008,10,16,17,27,8.20
2008,10,16,17,28,8.20
2008,10,16,17,29,8.20
2008,10,16,17,30,8.30
2008,10,16,17,31,8.30
2008,10,16,17,32,8.30
2008,10,16,17,33,8.30
2008,10,16,17,34,8.30
2008,10,16,17,35,8.30
2008,10,16,17,36,8.30
2008,10,16,17,37,8.30
2008,10,16,17,38,8.30
2008,10,16,17,39,8.30
2008,10,16,17,40,8.30
2008,10,16,17,41,8.30
2008,10,16,17,42,8.30
2008,10,16,17,43,8.30
2008,10,16,17,44,8.30
2008,10,16,17,45,8.30
2008,10,16,17,46,8.30
2008,10,16,17,47,8.30
2008,10,16,17,48,8.30
2008,10,16,17,49,8.30
2008,10,16,17,50,8.30
2008,10,16,17,51,8.30
2008,10,16,17,52,8.30
2008,10,16,17,53,8.30
2008,10,16,17,54,8.30
2008,10,16,17,55,8.30
2008,10,16,17,56,8.30
2008,10,16,17,57,8.30
2008,10,16,17,58,8.30
2008,10,16,17,59,8.30
2008,10,16,18,00,8.30
2008,10,16,18,01,8.30
2008,10,16,18,02,8.30
2008,10,16,18,03,8.30
2008,10,16,18,04,8.30
2008,10,16,18,05,8.30
2008,10,16,18,06,8.30
2008,10,16,18,07,8.30
2008,10,16,18,08,8.30
2008,10,16,18,09,8.30
2008,10,16,18,10,8.30
2008,10,16,18,11,8.30
2008,10,16,18,12,8.30
2008,10,16,18,13,8.30
2008,10,16,18,14,8.30
2008,10,16,18,15,8.30
2008,10,16,18,16,8.30
2008,10,16,18,17,8.30
2008,10,16,18,18,8.30
2008,10,16,18,19,8.30
2008,10,16,18,20,8.30
2008,10,16,18,21,8.30
2008,10,16,18,22,8.30
2008,10,16,18,23,8.30
2008,10,16,18,24,8.30
2008,10,16,18,25,8.40
2008,10,16,18,26,8.40
2008,10,16,18,27,8.40
2008,10,16,18,28,8.40
2008,10,16,18,29,8.40
2008,10,16,18,30,8.40
2008,10,16,18,31,8.40
2008,10,16,18,32,8.40
2008,10,16,18,33,8.40
2008,10,16,18,34,8.40
2008,10,16,18,35,8.40
2008,10,16,18,36,8.40
2008,10,16,18,37,8.40
2008,10,16,18,38,8.40
2008,10,16,18,39,8.40
2008,10,16,18,40,8.40
2008,10,16,18,41,8.40
2008,10,16,18,42,8.40
2008,10,16,18,43,8.40
2008,10,16,18,44,8.40
2008,10,16,18,45,8.40
2008,10,16,18,46,8.40
2008,10,16,18,47,8.40
2008,10,16,18,48,8.40
2008,10,16,18,49,8.40
2008,10,16,18,50,8.40
2008,10,16,18,51,8.50
2008,10,16,18,52,8.50
2008,10,16,18,53,8.50
2008,10,16,18,54,8.50
2008,10,16,18,55,8.50
2008,10,16,18,56,8.50
2008,10,16,18,57,8.50
2008,10,16,18,58,8.50
2008,10,16,18,59,8.50
2008,10,16,19,00,8.60
2008,10,16,19,01,8.60
2008,10,16,19,02,8.60
2008,10,16,19,03,8.60
2008,10,16,19,04,8.60
2008,10,16,19,05,8.60
2008,10,16,19,06,8.60
2008,10,16,19,07,8.60
2008,10,16,19,08,8.60
2008,10,16,19,09,8.60
2008,10,16,19,10,8.60
2008,10,16,19,11,8.60
2008,10,16,19,12,8.60
2008,10,16,19,13,8.60
2008,10,16,19,14,8.60
2008,10,16,19,15,8.60
2008,10,16,19,16,8.60
2008,10,16,19,17,8.60
2008,10,16,19,18,8.60
2008,10,16,19,19,8.60
2008,10,16,19,20,8.60
2008,10,16,19,21,8.60
2008,10,16,19,22,8.60
2008,10,16,19,23,8.60
2008,10,16,19,24,8.60
2008,10,16,19,25,8.60
2008,10,16,19,26,8.60
2008,10,16,19,27,8.60
2008,10,16,19,28,8.60
2008,10,16,19,29,8.60
2008,10,16,19,30,8.60
2008,10,16,19,31,8.60
2008,10,16,19,32,8.60
2008,10,16,19,33,8.60
2008,10,16,19,34,8.60
2008,10,16,19,35,8.60
2008,10,16,19,36,8.60
2008,10,16,19,37,8.60
2008,10,16,19,38,8.60
2008,10,16,19,39,8.60
2008,10,16,19,40,8.60
2008,10,16,19,41,8.70
2008,10,16,19,42,8.70
2008,10,16,19,43,8.70
2008,10,16,19,44,8.70
2008,10,16,19,45,8.70
2008,10,16,19,46,8.70
2008,10,16,19,47,8.70
2008,10,16,19,48,8.70
2008,10,16,19,49,8.70
2008,10,16,19,50,8.70
2008,10,16,19,51,8.70
2008,10,16,19,52,8.70
2008,10,16,19,53,8.70
2008,10,16,19,54,8.70
2008,10,16,19,55,8.70
2008,10,16,19,56,8.70
2008,10,16,19,57,8.70
2008,10,16,19,58,8.70
2008,10,16,19,59,8.70
2008,10,16,20,00,8.70
2008,10,16,20,01,8.70
2008,10,16,20,02,8.70
2008,10,16,20,03,8.70
2008,10,16,20,04,8.70
2008,10,16,20,05,8.70
2008,10,16,20,06,8.70
2008,10,16,20,07,8.70
2008,10,16,20,08,8.70
2008,10,16,20,09,8.70
2008,10,16,20,10,8.70
2008,10,16,20,11,8.80
2008,10,16,20,12,8.80
2008,10,16,20,13,8.80
2008,10,16,20,14,8.80
2008,10,16,20,15,8.80
2008,10,16,20,16,8.80
2008,10,16,20,17,8.80
2008,10,16,20,18,8.80
2008,10,16,20,19,8.80
2008,10,16,20,20,8.80
2008,10,16,20,21,8.80
2008,10,16,20,22,8.80
2008,10,16,20,23,8.80
2008,10,16,20,24,8.80
2008,10,16,20,25,8.80
2008,10,16,20,26,8.80
2008,10,16,20,27,8.80
2008,10,16,20,28,8.80
2008,10,16,20,29,8.80
2008,10,16,20,30,8.80
2008,10,16,20,31,8.80
2008,10,16,20,32,8.80
2008,10,16,20,33,8.80
2008,10,16,20,34,8.80
2008,10,16,20,35,8.80
2008,10,16,20,36,8.80
2008,10,16,20,37,8.80
2008,10,16,20,38,8.80
2008,10,16,20,39,8.80
2008,10,16,20,40,8.80
2008,10,16,20,41,8.80
2008,10,16,20,42,8.80
2008,10,16,20,43,8.80
2008,10,16,20,44,8.80
2008,10,16,20,45,8.80
2008,10,16,20,46,8.80
2008,10,16,20,47,8.80
2008,10,16,20,48,8.80
2008,10,16,20,49,8.80
2008,10,16,20,50,8.80
2008,10,16,20,51,8.80
2008,10,16,20,52,8.80
2008,10,16,20,53,8.80
2008,10,16,20,54,8.80
2008,10,16,20,55,8.80
2008,10,16,20,56,8.80
2008,10,16,20,57,8.80
2008,10,16,20,58,8.80
2008,10,16,20,59,8.80
2008,10,16,21,00,8.80
2008,10,16,21,01,8.80
2008,10,16,21,02,8.80
2008,10,16,21,03,8.80
2008,10,16,21,04,8.80
2008,10,16,21,05,8.80
2008,10,16,21,06,8.80
2008,10,16,21,07,8.80
2008,10,16,21,08,8.80
2008,10,16,21,09,8.80
2008,10,16,21,10,8.80
2008,10,16,21,11,8.80
2008,10,16,21,12,8.80
2008,10,16,21,13,8.80
2008,10,16,21,14,8.80
2008,10,16,21,15,8.90
2008,10,16,21,16,8.90
2008,10,16,21,17,8.90
2008,10,16,21,18,8.90
2008,10,16,21,19,8.90
2008,10,16,21,20,8.90
2008,10,16,21,21,8.90
2008,10,16,21,22,9.00
2008,10,16,21,23,9.00
2008,10,16,21,24,9.10
2008,10,16,21,25,9.10
2008,10,16,21,26,9.10
2008,10,16,21,27,9.10
2008,10,16,21,28,9.10
2008,10,16,21,29,9.10
2008,10,16,21,30,9.20
2008,10,16,21,31,9.20
2008,10,16,21,32,9.20
2008,10,16,21,33,9.20
2008,10,16,21,34,9.20
2008,10,16,21,35,9.20
2008,10,16,21,36,9.20
2008,10,16,21,37,9.20
2008,10,16,21,38,9.20
2008,10,16,21,39,9.20
2008,10,16,21,40,9.20
2008,10,16,21,41,9.20
2008,10,16,21,42,9.20
2008,10,16,21,43,9.20
2008,10,16,21,44,9.20
2008,10,16,21,45,9.20
2008,10,16,21,46,9.20
2008,10,16,21,47,9.20
2008,10,16,21,48,9.20
2008,10,16,21,49,9.30
2008,10,16,21,50,9.30
2008,10,16,21,51,9.30
2008,10,16,21,52,9.30
2008,10,16,21,53,9.30
2008,10,16,21,54,9.30
2008,10,16,21,55,9.30
2008,10,16,21,56,9.30
2008,10,16,21,57,9.30
2008,10,16,21,58,9.30
2008,10,16,21,59,9.30
2008,10,16,22,00,9.30
2008,10,16,22,01,9.30
2008,10,16,22,02,9.30
2008,10,16,22,03,9.30
2008,10,16,22,04,9.30
2008,10,16,22,05,9.20
2008,10,16,22,06,9.20
2008,10,16,22,07,9.20
2008,10,16,22,08,9.20
2008,10,16,22,09,9.20
2008,10,16,22,10,9.20
2008,10,16,22,11,9.20
2008,10,16,22,12,9.20
2008,10,16,22,13,9.20
2008,10,16,22,14,9.20
2008,10,16,22,15,9.20
2008,10,16,22,16,9.20
2008,10,16,22,17,9.20
2008,10,16,22,18,9.20
2008,10,16,22,19,9.20
2008,10,16,22,20,9.20
2008,10,16,22,21,9.20
2008,10,16,22,22,9.20
2008,10,16,22,23,9.20
2008,10,16,22,24,9.20
2008,10,16,22,25,9.20
2008,10,16,22,26,9.20
2008,10,16,22,27,9.20
2008,10,16,22,28,9.20
2008,10,16,22,29,9.20
2008,10,16,22,30,9.20
2008,10,16,22,31,9.20
2008,10,16,22,32,9.20
2008,10,16,22,33,9.20
2008,10,16,22,34,9.20
2008,10,16,22,35,9.30
2008,10,16,22,36,9.30
2008,10,16,22,37,9.30
2008,10,16,22,38,9.40
2008,10,16,22,39,9.40
2008,10,16,22,40,9.40
2008,10,16,22,41,9.40
2008,10,16,22,42,9.40
2008,10,16,22,43,9.40
2008,10,16,22,44,9.50
2008,10,16,22,45,9.50
2008,10,16,22,46,9.60
2008,10,16,22,47,9.60
2008,10,16,22,48,9.60
2008,10,16,22,49,9.60
2008,10,16,22,50,9.60
2008,10,16,22,51,9.60
2008,10,16,22,52,9.60
2008,10,16,22,53,9.60
2008,10,16,22,54,9.60
2008,10,16,22,55,9.60
2008,10,16,22,56,9.60
2008,10,16,22,57,9.60
2008,10,16,22,58,9.60
2008,10,16,22,59,9.60
2008,10,16,23,00,9.60
2008,10,16,23,01,9.60
2008,10,16,23,02,9.60
2008,10,16,23,03,9.60
2008,10,16,23,04,9.60
2008,10,16,23,05,9.60
2008,10,16,23,06,9.60
2008,10,16,23,07,9.60
2008,10,16,23,08,9.60
2008,10,16,23,09,9.60
2008,10,16,23,10,9.60
2008,10,16,23,11,9.60
2008,10,16,23,12,9.60
2008,10,16,23,13,9.60
2008,10,16,23,14,9.60
2008,10,16,23,15,9.60
2008,10,16,23,16,9.60
2008,10,16,23,17,9.60
2008,10,16,23,18,9.60
2008,10,16,23,19,9.60
2008,10,16,23,20,9.60
2008,10,16,23,21,9.60
2008,10,16,23,22,9.60
2008,10,16,23,23,9.60
2008,10,16,23,24,9.60
2008,10,16,23,25,9.60
2008,10,16,23,26,9.60
2008,10,16,23,27,9.60
2008,10,16,23,28,9.60
2008,10,16,23,29,9.60
2008,10,16,23,30,9.60
2008,10,16,23,31,9.60
2008,10,16,23,32,9.60
2008,10,16,23,33,9.60
2008,10,16,23,34,9.60
2008,10,16,23,35,9.60
2008,10,16,23,36,9.60
2008,10,16,23,37,9.60
2008,10,16,23,38,9.60
2008,10,16,23,39,9.60
2008,10,16,23,40,9.60
2008,10,16,23,41,9.60
2008,10,16,23,42,9.60
2008,10,16,23,43,9.60
2008,10,16,23,44,9.60
2008,10,16,23,45,9.60
2008,10,16,23,46,9.60
2008,10,16,23,47,9.60
2008,10,16,23,48,9.60
2008,10,16,23,49,9.60
2008,10,16,23,50,9.60
2008,10,16,23,51,9.60
2008,10,16,23,52,9.60
2008,10,16,23,53,9.70
2008,10,16,23,54,9.70
2008,10,16,23,55,9.70
2008,10,16,23,56,9.70
2008,10,16,23,57,9.70
2008,10,16,23,58,9.70
2008,10,16,23,59,9.70
